Weslaco, TX

6:29 PM CDT on August 26, 2016 (GMT -0500)
Weslaco

Weather History for KT65 - October, 2013

Change the Weather History Date:

Thursday, October 10, 2013

  Actual Average (KMFE) Record (KMFE)
Temperature  
Mean Temperature 78 °F 78 °F  
Max Temperature 90 °F 89 °F 98 °F (1962)
Min Temperature 65 °F 68 °F 44 °F (2000)
Degree Days  
Heating Degree Days 0 0  
Month to date heating degree days 0  
Since 1 July heating degree days 0  
Cooling Degree Days 12 14  
Month to date cooling degree days 144  
Year to date cooling degree days 3943  
Growing Degree Days 28 (Base 50)    
Moisture  
Dew Point 65 °F    
Average Humidity 64    
Maximum Humidity 87    
Minimum Humidity 33    
Precipitation  
Precipitation 0.00 in 0.07 in 2.50 in (1997)
Month to date precipitation 0.77  
Year to date precipitation 18.81  
Sea Level Pressure  
Sea Level Pressure 29.93 in    
Wind  
Wind Speed 4 mph (SE)    
Max Wind Speed 18 mph    
Max Gust Speed 23 mph    
Visibility 10 miles    
Events      
T = Trace of Precipitation, MM = Missing Value Source: NWS Daily Summary

Daily Weather History Graph

Daily Weather History Graph

Search for Another Location

Airport or City:

Trip Planner

Search our weather history database for the weather conditions in past years. The results will help you decide how hot, cold, wet, or windy it might be!

Date:

Astronomy

Oct. 10, 2013 Rise Set
Actual Time 7:28 AM CDT 7:08 PM CDT
Civil Twilight 7:05 AM CDT 7:31 PM CDT
Nautical Twilight 6:38 AM CDT 7:58 PM CDT
Astronomical Twilight 6:11 AM CDT 8:25 PM CDT
Moon 1:00 PM CDT (10/10) No Moon Set
Length of Visible Light 12h 26m
Length of Day
11h 40m
Waxing Crescent, 36% of the Moon is Illuminated
Oct 10
Waxing Crescent
Oct 11
First Quarter
Oct 18
Full
Oct 26
Last Quarter
Nov 3
New

Hourly Weather History & Observations

Time (CDT) Temp. Heat Index Dew Point Humidity Pressure Visibility Wind Dir Wind Speed Gust Speed Precip Events Conditions
12:15 AM 72.5 °F - 62.4 °F 71% 29.98 in 10.0 mi Calm Calm - N/A   Scattered Clouds
12:35 AM 71.8 °F - 62.4 °F 72% 29.98 in 10.0 mi Calm Calm - N/A   Clear
12:55 AM 71.8 °F - 62.6 °F 73% 29.99 in 10.0 mi Calm Calm - N/A   Clear
1:15 AM 70.9 °F - 62.6 °F 75% 29.99 in 10.0 mi Calm Calm - N/A   Clear
1:35 AM 70.9 °F - 62.8 °F 75% 29.98 in 10.0 mi SE 3.5 mph - N/A   Clear
1:55 AM 70.3 °F - 63.0 °F 77% 29.99 in 10.0 mi Calm Calm - N/A   Clear
2:15 AM 70.3 °F - 63.0 °F 77% 29.98 in 10.0 mi SE 3.5 mph - N/A   Clear
2:35 AM 70.0 °F - 62.8 °F 78% 29.98 in 10.0 mi SSE 4.6 mph - N/A   Clear
2:55 AM 70.0 °F - 62.8 °F 78% 29.98 in 10.0 mi SSE 3.5 mph - N/A   Scattered Clouds
3:15 AM 69.8 °F - 62.8 °F 78% 29.98 in 10.0 mi SSE 5.8 mph - N/A   Scattered Clouds
3:35 AM 70.0 °F - 62.6 °F 77% 29.97 in 10.0 mi SE 3.5 mph - N/A   Clear
3:55 AM 69.4 °F - 62.2 °F 78% 29.96 in 10.0 mi Calm Calm - N/A   Clear
4:15 AM 69.4 °F - 62.1 °F 77% 29.96 in 10.0 mi Calm Calm - N/A   Scattered Clouds
4:35 AM 70.0 °F - 62.1 °F 76% 29.96 in 10.0 mi Calm Calm - N/A   Scattered Clouds
4:55 AM 69.6 °F - 62.1 °F 77% 29.95 in 10.0 mi Calm Calm - N/A   Clear
5:15 AM 69.6 °F - 62.1 °F 77% 29.95 in 10.0 mi Calm Calm - N/A   Clear
5:35 AM 70.0 °F - 62.2 °F 76% 29.95 in 10.0 mi Calm Calm - N/A   Clear
5:55 AM 66.9 °F - 60.8 °F 81% 29.96 in 10.0 mi Calm Calm - N/A   Scattered Clouds
6:15 AM 66.2 °F - 61.5 °F 85% 29.96 in 10.0 mi Calm Calm - N/A   Mostly Cloudy
6:35 AM 66.2 °F - 61.9 °F 86% 29.96 in 10.0 mi Calm Calm - N/A   Scattered Clouds
6:55 AM 66.2 °F - 61.5 °F 85% 29.96 in 10.0 mi Calm Calm - N/A   Scattered Clouds
7:15 AM 66.2 °F - 61.7 °F 85% 29.96 in 10.0 mi Calm Calm - N/A   Scattered Clouds
7:35 AM 65.5 °F - 61.5 °F 87% 29.97 in 7.0 mi Calm Calm - N/A   Scattered Clouds
7:55 AM 66.2 °F - 61.9 °F 86% 29.97 in 7.0 mi Calm Calm - N/A   Mostly Cloudy
8:15 AM 69.6 °F - 63.3 °F 80% 29.97 in 7.0 mi Calm Calm - N/A   Mostly Cloudy
8:35 AM 72.7 °F - 64.2 °F 75% 29.98 in 10.0 mi Calm Calm - N/A   Scattered Clouds
8:55 AM 73.6 °F - 64.4 °F 73% 29.98 in 10.0 mi Calm Calm - N/A   Mostly Cloudy
9:15 AM 77.0 °F - 65.5 °F 67% 29.99 in 10.0 mi South 3.5 mph - N/A   Clear
9:35 AM 78.8 °F - 66.4 °F 66% 29.99 in 10.0 mi SSE 3.5 mph - N/A   Clear
9:55 AM 80.2 °F 82.5 °F 66.4 °F 63% 29.99 in 10.0 mi SSE 4.6 mph - N/A   Clear
10:15 AM 82.0 °F 84.5 °F 66.7 °F 60% 29.99 in 10.0 mi SSE 5.8 mph - N/A   Clear
10:35 AM 83.3 °F 85.7 °F 66.6 °F 57% 29.98 in 10.0 mi SSE 5.8 mph - N/A   Clear
10:55 AM 84.2 °F 86.6 °F 66.2 °F 55% 29.98 in 10.0 mi SE 10.4 mph - N/A   Scattered Clouds
11:15 AM 84.2 °F 86.1 °F 65.5 °F 53% 29.98 in 10.0 mi SSE 10.4 mph 17.3 mph N/A   Scattered Clouds
11:35 AM 85.6 °F 87.6 °F 65.5 °F 51% 29.98 in 10.0 mi SSE 9.2 mph - N/A   Scattered Clouds
11:55 AM 86.2 °F 87.9 °F 64.9 °F 49% 29.97 in 10.0 mi South 10.4 mph - N/A   Mostly Cloudy
12:15 PM 87.1 °F 88.6 °F 64.6 °F 47% 29.96 in 10.0 mi SSE 12.7 mph 16.1 mph N/A   Scattered Clouds
12:35 PM 87.4 °F 88.2 °F 62.8 °F 44% 29.96 in 7.0 mi SE 10.4 mph 18.4 mph N/A   Scattered Clouds
12:55 PM 87.8 °F 88.5 °F 62.4 °F 43% 29.94 in 10.0 mi SE 8.1 mph 19.6 mph N/A   Clear
1:15 PM 88.7 °F 89.1 °F 62.1 °F 41% 29.93 in 10.0 mi SE 13.8 mph 18.4 mph N/A   Clear
1:35 PM 89.2 °F 89.3 °F 61.0 °F 39% 29.92 in 10.0 mi SE 6.9 mph 17.3 mph N/A   Clear
1:55 PM 89.8 °F 89.7 °F 60.8 °F 38% 29.91 in 7.0 mi SSE 11.5 mph 17.3 mph N/A   Clear
2:15 PM 90.1 °F 88.8 °F 57.6 °F 33% 29.90 in 10.0 mi SSE 8.1 mph 19.6 mph N/A   Clear
2:35 PM 90.5 °F 89.3 °F 57.4 °F 33% 29.89 in 10.0 mi SE 13.8 mph 20.7 mph N/A   Clear
2:55 PM 90.3 °F 89.6 °F 59.2 °F 35% 29.88 in 10.0 mi SE 11.5 mph 16.1 mph N/A   Clear
3:15 PM 90.1 °F 90.6 °F 62.1 °F 39% 29.88 in 10.0 mi ESE 11.5 mph 21.9 mph N/A   Clear
3:35 PM 90.0 °F 90.6 °F 62.6 °F 40% 29.88 in 7.0 mi SE 9.2 mph - N/A   Clear
3:55 PM 90.0 °F 91.3 °F 64.0 °F 42% 29.87 in 7.0 mi SSE 15.0 mph 20.7 mph N/A   Scattered Clouds
4:15 PM 89.6 °F 91.1 °F 64.2 °F 43% 29.87 in 10.0 mi SSE 16.1 mph 19.6 mph N/A   Scattered Clouds
4:35 PM 88.5 °F 90.8 °F 66.0 °F 47% 29.87 in 10.0 mi SE 11.5 mph 23.0 mph N/A   Scattered Clouds
4:55 PM 87.8 °F 90.0 °F 66.0 °F 48% 29.86 in 10.0 mi SSE 18.4 mph - N/A   Scattered Clouds
5:15 PM 88.3 °F 90.9 °F 66.4 °F 48% 29.86 in 10.0 mi SSE 15.0 mph 21.9 mph N/A   Clear
5:35 PM 87.8 °F 90.7 °F 67.3 °F 50% 29.86 in 10.0 mi SE 13.8 mph 20.7 mph N/A   Scattered Clouds
5:55 PM 86.9 °F 90.6 °F 68.2 °F 54% 29.87 in 10.0 mi SE 13.8 mph 21.9 mph N/A   Scattered Clouds
6:15 PM 85.8 °F 89.1 °F 68.2 °F 55% 29.87 in 10.0 mi SE 16.1 mph 19.6 mph N/A   Scattered Clouds
6:35 PM 84.2 °F 87.3 °F 68.2 °F 58% 29.88 in 7.0 mi SE 9.2 mph 19.6 mph N/A   Scattered Clouds
6:55 PM 83.3 °F 86.6 °F 68.5 °F 61% 29.88 in 10.0 mi SE 11.5 mph 18.4 mph N/A   Scattered Clouds
7:15 PM 82.4 °F 85.8 °F 69.1 °F 64% 29.88 in 10.0 mi SE 12.7 mph 19.6 mph N/A   Mostly Cloudy
7:35 PM 81.7 °F 85.1 °F 69.4 °F 66% 29.88 in 10.0 mi SE 9.2 mph 17.3 mph N/A   Scattered Clouds
7:55 PM 81.5 °F 84.9 °F 69.4 °F 67% 29.88 in 10.0 mi SE 11.5 mph - N/A   Mostly Cloudy
8:15 PM 80.8 °F 83.9 °F 69.4 °F 68% 29.89 in 10.0 mi SE 6.9 mph - N/A   Scattered Clouds
8:35 PM 81.0 °F 84.2 °F 69.6 °F 68% 29.89 in 10.0 mi SE 9.2 mph - N/A   Scattered Clouds
8:55 PM 80.6 °F 83.9 °F 69.8 °F 70% 29.90 in 10.0 mi SE 9.2 mph - N/A   Scattered Clouds
9:15 PM 80.6 °F 83.9 °F 70.0 °F 70% 29.90 in 7.0 mi SE 8.1 mph - N/A   Mostly Cloudy
9:35 PM 79.9 °F - 69.8 °F 71% 29.90 in 10.0 mi SE 8.1 mph - N/A   Mostly Cloudy
9:55 PM 79.7 °F - 70.0 °F 72% 29.90 in 7.0 mi ESE 5.8 mph - N/A   Scattered Clouds
10:15 PM 79.0 °F - 70.0 °F 74% 29.90 in 10.0 mi SE 4.6 mph - N/A   Scattered Clouds
10:35 PM 79.3 °F - 70.7 °F 75% 29.90 in 7.0 mi SE 5.8 mph - N/A   Overcast
10:55 PM 79.7 °F - 70.7 °F 74% 29.90 in 10.0 mi SE 9.2 mph - N/A   Overcast
11:15 PM 79.3 °F - 70.9 °F 75% 29.90 in 10.0 mi SE 8.1 mph - N/A   Overcast
11:35 PM 78.8 °F - 71.2 °F 78% 29.90 in 10.0 mi SE 9.2 mph - N/A   Mostly Cloudy
11:55 PM 78.8 °F - 71.4 °F 78% 29.90 in 10.0 mi SE 5.8 mph - N/A   Scattered Clouds